Back to catalog

STARLINK-32724

AliveCommunicationsVLEO
NORAD 62441·PAYLOAD·🇺🇸 United States

Launched Dec 29, 2024 from Vandenberg Space Force Base

Loading…

Next Passes (next 24 hours)

TLE

FreshSource: CelesTrak SupGP

Epoch: Sep 15, 2026, 02:22 UTC

1 62441C 24251K   26258.09909722  .00014751  00000+0  43620-3 0  2585
2 62441  53.1569 172.6771 0001436  70.5078  85.1338 15.34355696    16

Track STARLINK-32724 in real time with AllMySat

Download on the App Store